| time (UTC) | temp F | wind direction | speed MPH | gust MPH | rain 1hr in | rain 24hr in | rain mn in | humidity % | barometer mb |
| 20260503213109 | 65 | 159 | 11.0 | 19.0 | 0.00 | 0.00 | 0.00 | 27 | 1003.3 |
| 20260503211611 | 65 | 153 | 7.0 | 20.0 | 0.00 | 0.00 | 0.00 | 28 | 1003.4 |
| 20260503210052 | 64 | 124 | 15.0 | 25.0 | 0.00 | 0.00 | 0.00 | 27 | 1003.4 |
| 20260503204555 | 64 | 141 | 13.0 | 20.0 | 0.00 | 0.00 | 0.00 | 28 | 1003.6 |
| 20260503203052 | 64 | 151 | 15.0 | 24.0 | 0.00 | 0.00 | 0.00 | 28 | 1003.9 |
| 20260503201547 | 64 | 157 | 10.0 | 20.0 | 0.00 | 0.00 | 0.00 | 27 | 1004.0 |
| 20260503200058 | 64 | 149 | 14.0 | 21.0 | 0.00 | 0.00 | 0.00 | 28 | 1004.2 |
| 20260503194603 | 63 | 155 | 13.0 | 23.0 | 0.00 | 0.00 | 0.00 | 27 | 1004.3 |
| 20260503193141 | 63 | 165 | 11.0 | 22.0 | 0.00 | 0.00 | 0.00 | 27 | 1004.5 |
| 20260503191549 | 62 | 165 | 19.0 | 26.0 | 0.00 | 0.00 | 0.00 | 26 | 1004.6 |
| 20260503190050 | 62 | 150 | 14.0 | 28.0 | 0.00 | 0.00 | 0.00 | 25 | 1004.7 |
| 20260503184559 | 62 | 151 | 10.0 | 22.0 | 0.00 | 0.00 | 0.00 | 23 | 1004.8 |
| 20260503183050 | 61 | 148 | 16.0 | 24.0 | 0.00 | 0.00 | 0.00 | 21 | 1005.1 |
| 20260503181608 | 61 | 144 | 16.0 | 24.0 | 0.00 | 0.00 | 0.00 | 21 | 1005.3 |
| 20260503180107 | 61 | 163 | 16.0 | 29.0 | 0.00 | 0.00 | 0.00 | 22 | 1005.5 |
| 20260503174557 | 61 | 165 | 12.0 | 27.0 | 0.00 | 0.00 | 0.00 | 25 | 1005.4 |
| 20260503173059 | 60 | 161 | 16.0 | 26.0 | 0.00 | 0.00 | 0.00 | 21 | 1005.5 |
| 20260503171551 | 60 | 142 | 16.0 | 27.0 | 0.00 | 0.00 | 0.00 | 22 | 1005.6 |
| 20260503081549 | 46 | 163 | 0.0 | 1.0 | 0.00 | 0.00 | 0.00 | 77 | 1005.6 |
| 20260503071557 | 51 | 163 | 1.0 | 7.0 | 0.00 | 0.00 | 0.00 | 69 | 1006.2 |
| 20260503054549 | 49 | 163 | 4.0 | 8.0 | 0.00 | 0.00 | 0.00 | 79 | 1007.1 |
| 20260503053048 | 49 | 163 | 5.0 | 10.0 | 0.00 | 0.00 | 0.00 | 82 | 1007.2 |
| 20260503051557 | 50 | 163 | 2.0 | 6.0 | 0.00 | 0.00 | 0.00 | 79 | 1007.3 |
| 20260503050057 | 50 | 163 | 1.0 | 4.0 | 0.00 | 0.00 | 0.00 | 80 | 1007.5 |
| 20260503044602 | 50 | 0 | 0.0 | 1.0 | 0.00 | 0.00 | 0.00 | 78 | 1007.8 |
| 20260503043058 | 51 | 0 | 0.0 | 2.0 | 0.00 | 0.00 | 0.00 | 76 | 1007.8 |
| 20260503041550 | 51 | 0 | 0.0 | 6.0 | 0.00 | 0.00 | 0.00 | 77 | 1008.0 |
| 20260503040057 | 52 | 163 | 4.0 | 6.0 | 0.00 | 0.00 | 0.00 | 73 | 1007.8 |
| 20260503034559 | 53 | 163 | 1.0 | 4.0 | 0.00 | 0.00 | 0.00 | 69 | 1008.5 |
| 20260503033053 | 54 | 163 | 1.0 | 4.0 | 0.00 | 0.00 | 0.00 | 66 | 1008.6 |
| 20260503031550 | 55 | 163 | 2.0 | 11.0 | 0.00 | 0.00 | 0.00 | 63 | 1008.9 |
| 20260503030123 | 55 | 163 | 7.0 | 17.0 | 0.00 | 0.00 | 0.00 | 59 | 1009.0 |
| 20260503024550 | 56 | 160 | 9.0 | 16.0 | 0.00 | 0.00 | 0.00 | 55 | 1009.1 |
| 20260503023048 | 57 | 157 | 8.0 | 16.0 | 0.00 | 0.00 | 0.00 | 52 | 1009.1 |
| 20260503021548 | 57 | 155 | 9.0 | 20.0 | 0.00 | 0.00 | 0.00 | 50 | 1009.0 |
| 20260503020045 | 58 | 149 | 11.0 | 20.0 | 0.00 | 0.00 | 0.00 | 48 | 1009.0 |
| 20260503014601 | 58 | 160 | 10.0 | 23.0 | 0.00 | 0.00 | 0.00 | 46 | 1008.8 |
| 20260503013052 | 59 | 151 | 10.0 | 21.0 | 0.00 | 0.00 | 0.00 | 43 | 1008.8 |
| 20260503011554 | 60 | 138 | 12.0 | 19.0 | 0.00 | 0.00 | 0.00 | 41 | 1008.6 |
| 20260503010104 | 60 | 121 | 12.0 | 24.0 | 0.00 | 0.00 | 0.00 | 39 | 1008.5 |
| 20260503004549 | 60 | 104 | 5.0 | 11.0 | 0.00 | 0.00 | 0.00 | 38 | 1008.3 |
| 20260503003056 | 60 | 104 | 6.0 | 10.0 | 0.00 | 0.00 | 0.00 | 39 | 1008.4 |
| 20260503001548 | 61 | 0 | 3.0 | 9.0 | 0.00 | 0.00 | 0.00 | 39 | 1008.5 |
| 20260503000053 | 61 | 104 | 5.0 | 10.0 | 0.00 | 0.00 | 0.00 | 39 | 1008.5 |
| 20260502234547 | 61 | 104 | 5.0 | 9.0 | 0.00 | 0.00 | 0.00 | 38 | 1008.7 |
| 20260502233052 | 61 | 104 | 7.0 | 13.0 | 0.00 | 0.00 | 0.00 | 37 | 1008.9 |
| 20260502231544 | 61 | 104 | 8.0 | 20.0 | 0.00 | 0.00 | 0.00 | 37 | 1009.0 |
| 20260502230045 | 62 | 104 | 6.0 | 12.0 | 0.00 | 0.00 | 0.00 | 36 | 1009.1 |
| 20260502224548 | 62 | 104 | 9.0 | 23.0 | 0.00 | 0.00 | 0.00 | 36 | 1009.2 |
| 20260502223048 | 62 | 105 | 14.0 | 21.0 | 0.00 | 0.00 | 0.00 | 35 | 1009.4 |
| 20260502221546 | 62 | 105 | 13.0 | 24.0 | 0.00 | 0.00 | 0.00 | 33 | 1009.6 |
| 20260502220048 | 62 | 101 | 9.0 | 21.0 | 0.00 | 0.00 | 0.00 | 33 | 1009.8 |
| 20260502214554 | 62 | 101 | 14.0 | 25.0 | 0.00 | 0.00 | 0.00 | 34 | 1009.8 |